Location: Blackrock Ranger Station
(36.0936°N, 118.2611°W)
Time: 20:57:47
(UTC-08:00)

BlueWalker 3 - Visible Passes

Search period start: 07 December 2025 00:00
Search period end: 17 December 2025 00:00
Orbit: 455 x 462 km, 53.2° (Epoch: 06 December)

Date Brightness Start Highest point End Pass type
(mag) Time Alt. Az. Time Alt. Az. Time Alt. Az.
07 Dec 2.0 18:28:40 10° NW 18:31:46 64° NW 18:31:46 64° NW visible
08 Dec 1.6 17:53:51 10° NW 17:57:28 68° NE 17:59:35 22° ESE visible
09 Dec 1.9 17:19:04 10° NW 17:22:35 50° NE 17:26:06 10° ESE visible
09 Dec 4.8 18:57:47 10° W 18:59:46 14° SW 19:01:45 10° SSW visible
10 Dec 4.5 18:22:23 10° W 18:25:01 19° SW 18:27:38 10° S visible
11 Dec 4.1 17:47:10 10° WNW 17:50:13 26° SW 17:53:15 10° S visible
12 Dec 3.6 17:12:04 10° WNW 17:15:23 35° SW 17:18:42 10° SSE visible
